^^
Paulen-Weather Station Historical Data
 
Daily Summary for November 18, 2019 Units:  Metric    English   Both
Daily Weekly Monthly Yearly Custom
  Current: High: Low: Average:
Temperature: 5 °C 6 °C 5 °C 5.2 °C
Dew Point: 4 °C 5 °C 4 °C 4.3 °C
Humidity: 94% 96% 90% 94%
Wind Speed: 30km/h 39km/h 16km/h 26.6km/h
Wind Gust: 32km/h 43km/h - -
WindNNE - - NNE
Pressure: 1013.75 hPa 1015.82 hPa 1013.48 hPa -
Precipitation: 0.79 mm      
Historical Graphs
 
 
Tabular Data for November 18, 2019
Time Temperature Dew Point Pressure Wind Wind Speed Wind Gust Humidity Rainfall Rate (Hourly) solar
00:04 5 °C 4 °C 1015.82 hPa NNE 18 km/h 19 km/h 90% 0 mm 0 W/m2
00:09 5 °C 4 °C 1015.82 hPa NNE 18 km/h 19 km/h 90% 0 mm 0 W/m2
00:14 5 °C 4 °C 1015.82 hPa NNE 18 km/h 19 km/h 90% 0 mm 0 W/m2
00:19 5 °C 4 °C 1015.78 hPa NNE 17 km/h 19 km/h 90% 0 mm 0 W/m2
00:24 5 °C 4 °C 1015.71 hPa NNE 18 km/h 19 km/h 91% 0 mm 0 W/m2
00:29 5 °C 4 °C 1015.68 hPa NNE 20 km/h 21 km/h 91% 0 mm 0 W/m2
00:34 5 °C 4 °C 1015.68 hPa NNE 22 km/h 23 km/h 91% 0 mm 0 W/m2
00:39 5 °C 4 °C 1015.65 hPa NNE 21 km/h 23 km/h 91% 0 mm 0 W/m2
00:44 5 °C 4 °C 1015.71 hPa NNE 21 km/h 23 km/h 91% 0 mm 0 W/m2
00:49 5 °C 4 °C 1015.75 hPa NNE 20 km/h 23 km/h 92% 0 mm 0 W/m2
00:54 5 °C 4 °C 1015.78 hPa NNE 20 km/h 21 km/h 92% 0 mm 0 W/m2
00:59 5 °C 4 °C 1015.65 hPa NNE 21 km/h 23 km/h 92% 0 mm 0 W/m2
01:04 5 °C 4 °C 1015.54 hPa NNE 22 km/h 26 km/h 92% 0 mm 0 W/m2
01:09 5 °C 4 °C 1015.44 hPa NNE 23 km/h 24 km/h 92% 0 mm 0 W/m2
01:14 5 °C 4 °C 1015.41 hPa NNE 24 km/h 24 km/h 93% 0 mm 0 W/m2
01:19 5 °C 4 °C 1015.41 hPa NNE 24 km/h 26 km/h 93% 0 mm 0 W/m2
01:24 5 °C 4 °C 1015.41 hPa NNE 25 km/h 24 km/h 93% 0 mm 0 W/m2
01:29 5 °C 4 °C 1015.44 hPa NNE 26 km/h 27 km/h 93% 0 mm 0 W/m2
01:34 5 °C 4 °C 1015.48 hPa NNE 25 km/h 26 km/h 93% 0 mm 0 W/m2
01:39 5 °C 4 °C 1015.54 hPa NNE 21 km/h 26 km/h 93% 0 mm 0 W/m2
01:44 5 °C 4 °C 1015.58 hPa NNE 22 km/h 24 km/h 94% 0 mm 0 W/m2
01:49 5 °C 4 °C 1015.61 hPa NNE 21 km/h 24 km/h 94% 0 mm 0 W/m2
01:54 5 °C 4 °C 1015.51 hPa NNE 23 km/h 23 km/h 95% 0 mm 0 W/m2
01:59 5 °C 4 °C 1015.41 hPa NNE 22 km/h 24 km/h 95% 0 mm 0 W/m2
02:04 5 °C 4 °C 1015.37 hPa NNE 22 km/h 24 km/h 96% 0 mm 0 W/m2
02:09 5 °C 4 °C 1015.34 hPa NNE 19 km/h 23 km/h 96% 0 mm 0 W/m2
02:14 5 °C 4 °C 1015.41 hPa NNE 19 km/h 21 km/h 96% 0 mm 0 W/m2
02:19 5 °C 4 °C 1015.37 hPa NNE 19 km/h 19 km/h 96% 0 mm 0 W/m2
02:24 5 °C 4 °C 1015.48 hPa NNE 18 km/h 19 km/h 96% 0 mm 0 W/m2
02:29 5 °C 4 °C 1015.48 hPa NNE 16 km/h 19 km/h 96% 0 mm 0 W/m2
02:34 5 °C 5 °C 1015.48 hPa NE 17 km/h 16 km/h 96% 0 mm 0 W/m2
02:39 6 °C 5 °C 1015.48 hPa NE 23 km/h 21 km/h 95% 0 mm 0 W/m2
02:44 6 °C 5 °C 1015.51 hPa NNE 25 km/h 27 km/h 94% 0 mm 0 W/m2
02:49 6 °C 5 °C 1015.51 hPa NNE 25 km/h 29 km/h 94% 0 mm 0 W/m2
02:54 6 °C 5 °C 1015.51 hPa NNE 25 km/h 26 km/h 94% 0 mm 0 W/m2
02:59 6 °C 5 °C 1015.48 hPa NNE 23 km/h 29 km/h 94% 0 mm 0 W/m2
03:04 6 °C 5 °C 1015.48 hPa NNE 19 km/h 24 km/h 94% 0 mm 0 W/m2
03:09 6 °C 5 °C 1015.48 hPa NNE 26 km/h 25 km/h 94% 0 mm 0 W/m2
03:14 6 °C 5 °C 1015.41 hPa NNE 23 km/h 32 km/h 94% 0 mm 0 W/m2
03:19 6 °C 5 °C 1015.34 hPa NNE 25 km/h 26 km/h 95% 0 mm 0 W/m2
03:24 5 °C 5 °C 1015.24 hPa NNE 24 km/h 27 km/h 95% 0 mm 0 W/m2
03:29 5 °C 5 °C 1015.14 hPa NNE 22 km/h 24 km/h 95% 0 mm 0 W/m2
03:34 5 °C 5 °C 1014.97 hPa NNE 26 km/h 26 km/h 95% 0 mm 0 W/m2
03:39 5 °C 5 °C 1014.8 hPa NNE 27 km/h 29 km/h 95% 0 mm 0 W/m2
03:44 5 °C 5 °C 1014.73 hPa NNE 24 km/h 32 km/h 95% 0 mm 0 W/m2
03:49 5 °C 5 °C 1014.7 hPa NNE 25 km/h 26 km/h 95% 0 mm 0 W/m2
03:54 5 °C 5 °C 1014.6 hPa NNE 26 km/h 29 km/h 95% 0 mm 0 W/m2
03:59 5 °C 5 °C 1014.6 hPa NE 25 km/h 29 km/h 95% 0 mm 0 W/m2
04:04 5 °C 5 °C 1014.53 hPa NNE 27 km/h 27 km/h 95% 0 mm 0 W/m2
04:09 5 °C 5 °C 1014.36 hPa NNE 30 km/h 34 km/h 95% 0 mm 0 W/m2
04:14 6 °C 5 °C 1014.29 hPa NNE 30 km/h 32 km/h 95% 0 mm 0 W/m2
04:19 6 °C 5 °C 1014.19 hPa NNE 31 km/h 34 km/h 94% 0 mm 0 W/m2
04:24 6 °C 5 °C 1014.19 hPa NNE 30 km/h 32 km/h 94% 0 mm 0 W/m2
04:29 6 °C 5 °C 1014.19 hPa NNE 34 km/h 34 km/h 94% 0 mm 0 W/m2
04:34 6 °C 5 °C 1014.12 hPa NNE 36 km/h 35 km/h 93% 0 mm 0 W/m2
04:39 5 °C 5 °C 1014.09 hPa NNE 36 km/h 39 km/h 93% 0 mm 0 W/m2
04:44 5 °C 4 °C 1014.12 hPa NNE 33 km/h 39 km/h 93% 0 mm 0 W/m2
04:49 5 °C 4 °C 1014.16 hPa NNE 32 km/h 37 km/h 94% 0 mm 0 W/m2
04:54 5 °C 4 °C 1014.12 hPa NNE 31 km/h 35 km/h 94% 0 mm 0 W/m2
04:59 5 °C 4 °C 1014.09 hPa NE 32 km/h 37 km/h 94% 0 mm 0 W/m2
05:04 5 °C 4 °C 1013.99 hPa NE 30 km/h 37 km/h 94% 0 mm 0 W/m2
05:09 5 °C 4 °C 1013.92 hPa NNE 32 km/h 32 km/h 93% 0 mm 0 W/m2
05:14 5 °C 4 °C 1013.88 hPa NNE 32 km/h 34 km/h 94% 0 mm 0 W/m2
05:19 5 °C 4 °C 1013.82 hPa NE 30 km/h 35 km/h 94% 0 mm 0 W/m2
05:24 5 °C 4 °C 1013.72 hPa NNE 34 km/h 35 km/h 94% 0 mm 0 W/m2
05:29 5 °C 4 °C 1013.68 hPa NNE 37 km/h 42 km/h 94% 0 mm 0 W/m2
05:34 5 °C 4 °C 1013.61 hPa NNE 36 km/h 43 km/h 94% 0 mm 0 W/m2
05:39 5 °C 4 °C 1013.58 hPa NNE 36 km/h 42 km/h 94% 0 mm 0 W/m2
05:44 5 °C 4 °C 1013.55 hPa NNE 37 km/h 40 km/h 94% 0 mm 0 W/m2
05:49 5 °C 4 °C 1013.51 hPa NE 39 km/h 40 km/h 94% 0 mm 0 W/m2
05:54 5 °C 4 °C 1013.51 hPa NNE 39 km/h 42 km/h 94% 0.2 mm 0 W/m2
05:59 5 °C 4 °C 1013.51 hPa NNE 34 km/h 40 km/h 94% 0.2 mm 0 W/m2
06:04 5 °C 4 °C 1013.48 hPa NNE 36 km/h 40 km/h 94% 0.2 mm 0 W/m2
06:09 5 °C 4 °C 1013.51 hPa NNE 33 km/h 37 km/h 94% 0.2 mm 0 W/m2
06:14 5 °C 4 °C 1013.55 hPa NNE 32 km/h 37 km/h 95% 0.41 mm 0 W/m2
06:19 5 °C 4 °C 1013.55 hPa NNE 33 km/h 37 km/h 95% 0.41 mm 0 W/m2
06:24 5 °C 4 °C 1013.58 hPa NNE 37 km/h 39 km/h 94% 0.41 mm 0 W/m2
06:29 5 °C 4 °C 1013.65 hPa NNE 32 km/h 40 km/h 94% 0.41 mm 0 W/m2
06:34 5 °C 4 °C 1013.65 hPa NNE 31 km/h 35 km/h 94% 0.41 mm 0 W/m2
06:39 5 °C 4 °C 1013.65 hPa NNE 29 km/h 34 km/h 94% 0.61 mm 0 W/m2
06:44 5 °C 4 °C 1013.61 hPa NNE 32 km/h 34 km/h 94% 0.61 mm 0 W/m2
06:49 5 °C 4 °C 1013.65 hPa NNE 29 km/h 39 km/h 94% 0.61 mm 0 W/m2
06:54 5 °C 4 °C 1013.78 hPa NNE 31 km/h 34 km/h 94% 0.41 mm 0 W/m2
06:59 5 °C 4 °C 1013.75 hPa NNE 30 km/h 32 km/h 94% 0.61 mm 0 W/m2
Compliments of Weather Underground - 2 mb